Time,TemperatureF,DewpointF,PressureIn,WindDirection,WindDirectionDegrees,WindSpeedMPH,WindSpeedGustMPH,Humidity,HourlyPrecipIn,Conditions,Clouds,dailyrainin,SolarRadiationWatts/m^2,SoftwareType,DateUTC
2013-07-25 00:01:00,58.0,50.5,30.03,North,11,0.0,1.0,76,0.00,FEW,,0.00,0.0,WeatherDisplay:10.37,2013-07-25 04:01:00,
2013-07-25 00:06:00,58.1,50.2,30.03,North,11,0.0,1.0,75,0.00,FEW,,0.00,0.0,WeatherDisplay:10.37,2013-07-25 04:06:00,
2013-07-25 00:11:00,58.3,50.4,30.03,North,11,0.0,0.0,75,0.00,FEW,,0.00,0.0,WeatherDisplay:10.37,2013-07-25 04:11:00,
2013-07-25 00:21:00,58.1,50.6,30.03,North,11,0.0,0.0,76,0.00,FEW,,0.00,0.0,WeatherDisplay:10.37,2013-07-25 04:21:00,
2013-07-25 00:26:00,57.8,50.6,30.03,North,11,0.0,0.0,77,0.00,FEW,,0.00,0.0,WeatherDisplay:10.37,2013-07-25 04:26:00,
2013-07-25 00:31:00,57.7,50.9,30.03,North,11,0.0,1.0,78,0.00,FEW,,0.00,0.0,WeatherDisplay:10.37,2013-07-25 04:31:00,
2013-07-25 00:36:00,57.5,51.0,30.03,North,11,0.0,0.0,79,0.00,SCT,,0.00,0.0,WeatherDisplay:10.37,2013-07-25 04:36:00,
2013-07-25 00:41:00,57.5,51.0,30.03,North,11,0.0,0.0,79,0.00,SCT,,0.00,0.0,WeatherDisplay:10.37,2013-07-25 04:41:00,
2013-07-25 00:46:00,57.5,51.0,30.03,North,11,0.0,0.0,79,0.00,SCT,,0.00,0.0,WeatherDisplay:10.37,2013-07-25 04:46:00,
2013-07-25 00:51:00,57.4,51.3,30.03,North,11,0.0,0.0,80,0.00,SCT,,0.00,0.0,WeatherDisplay:10.37,2013-07-25 04:51:00,
2013-07-25 01:01:00,57.4,51.3,30.04,North,11,0.0,0.0,80,0.00,SCT,,0.00,0.0,WeatherDisplay:10.37,2013-07-25 05:01:00,
2013-07-25 01:06:00,57.4,51.6,30.04,North,11,0.0,0.0,81,0.00,SCT,,0.00,0.0,WeatherDisplay:10.37,2013-07-25 05:06:00,
2013-07-25 01:11:00,57.4,51.6,30.04,North,11,0.0,0.0,81,0.00,SCT,,0.00,0.0,WeatherDisplay:10.37,2013-07-25 05:11:00,
2013-07-25 01:21:00,57.4,51.9,30.04,North,11,0.0,0.0,82,0.00,BKN,,0.00,0.0,WeatherDisplay:10.37,2013-07-25 05:21:00,
2013-07-25 01:26:00,57.4,52.3,30.04,North,11,0.0,0.0,83,0.00,BKN,,0.00,0.0,WeatherDisplay:10.37,2013-07-25 05:26:00,
2013-07-25 01:31:00,57.2,52.1,30.04,North,11,0.0,0.0,83,0.00,BKN,,0.00,0.0,WeatherDisplay:10.37,2013-07-25 05:31:00,
2013-07-25 01:36:00,57.2,52.1,30.04,North,11,0.0,0.0,83,0.00,BKN,,0.00,0.0,WeatherDisplay:10.37,2013-07-25 05:36:00,
2013-07-25 01:41:00,57.1,52.0,30.04,North,11,0.0,0.0,83,0.00,BKN,,0.00,0.0,WeatherDisplay:10.37,2013-07-25 05:41:00,
2013-07-25 01:51:00,57.1,52.0,30.04,North,11,0.0,0.0,83,0.00,BKN,,0.00,0.0,WeatherDisplay:10.37,2013-07-25 05:51:00,
2013-07-25 01:56:00,56.9,51.8,30.04,North,11,0.0,0.0,83,0.00,BKN,,0.00,0.0,WeatherDisplay:10.37,2013-07-25 05:56:00,
2013-07-25 02:01:00,56.9,52.1,30.04,North,11,0.0,0.0,84,0.00,BKN,,0.00,0.0,WeatherDisplay:10.37,2013-07-25 06:01:00,
2013-07-25 02:06:00,56.8,52.0,30.04,North,11,0.0,0.0,84,0.00,BKN,,0.00,0.0,WeatherDisplay:10.37,2013-07-25 06:06:00,
2013-07-25 02:11:00,56.8,52.3,30.04,North,11,0.0,0.0,85,0.00,BKN,,0.00,0.0,WeatherDisplay:10.37,2013-07-25 06:11:00,
2013-07-25 02:16:00,56.8,52.3,30.04,North,11,0.0,0.0,85,0.00,BKN,,0.00,0.0,WeatherDisplay:10.37,2013-07-25 06:16:00,
2013-07-25 02:21:00,56.8,52.3,30.04,North,11,0.0,0.0,85,0.00,BKN,,0.00,0.0,WeatherDisplay:10.37,2013-07-25 06:21:00,
2013-07-25 02:26:00,56.8,52.3,30.04,North,11,0.0,1.0,85,0.00,BKN,,0.00,0.0,WeatherDisplay:10.37,2013-07-25 06:26:00,
2013-07-25 02:31:00,56.6,52.1,30.04,North,11,0.0,0.0,85,0.00,BKN,,0.00,0.0,WeatherDisplay:10.37,2013-07-25 06:31:00,
2013-07-25 02:36:00,56.6,52.1,30.04,North,11,0.0,0.0,85,0.00,SCT,,0.00,0.0,WeatherDisplay:10.37,2013-07-25 06:36:00,
2013-07-25 02:41:00,56.4,51.9,30.04,North,11,0.0,0.0,85,0.00,SCT,,0.00,0.0,WeatherDisplay:10.37,2013-07-25 06:41:00,
2013-07-25 02:46:00,56.3,52.2,30.04,North,11,0.0,0.0,86,0.00,SCT,,0.00,0.0,WeatherDisplay:10.37,2013-07-25 06:46:00,
2013-07-25 02:51:00,56.3,52.2,30.04,North,11,0.0,0.0,86,0.00,SCT,,0.00,0.0,WeatherDisplay:10.37,2013-07-25 06:51:00,
2013-07-25 02:56:00,56.1,52.0,30.04,North,11,0.0,0.0,86,0.00,SCT,,0.00,0.0,WeatherDisplay:10.37,2013-07-25 06:56:00,
2013-07-25 03:01:00,56.1,52.3,30.04,North,11,0.0,0.0,87,0.00,SCT,,0.00,0.0,WeatherDisplay:10.37,2013-07-25 07:01:00,
2013-07-25 03:06:00,56.0,52.2,30.04,North,11,0.0,0.0,87,0.00,SCT,,0.00,0.0,WeatherDisplay:10.37,2013-07-25 07:06:00,
2013-07-25 03:16:00,55.8,52.3,30.04,North,11,0.0,0.0,88,0.00,SCT,,0.00,0.0,WeatherDisplay:10.37,2013-07-25 07:16:00,
2013-07-25 03:21:00,55.7,52.2,30.04,North,11,0.0,0.0,88,0.00,SCT,,0.00,0.0,WeatherDisplay:10.37,2013-07-25 07:21:00,
2013-07-25 03:26:00,55.7,52.2,30.04,North,11,0.0,0.0,88,0.00,SCT,,0.00,0.0,WeatherDisplay:10.37,2013-07-25 07:26:00,
2013-07-25 03:31:00,55.7,52.2,30.04,North,11,0.0,0.0,88,0.00,SCT,,0.00,0.0,WeatherDisplay:10.37,2013-07-25 07:31:00,
2013-07-25 03:41:00,55.5,52.0,30.04,North,11,0.0,0.0,88,0.00,BKN,,0.00,0.0,WeatherDisplay:10.37,2013-07-25 07:41:00,
2013-07-25 03:46:00,55.4,51.9,30.04,North,11,0.0,0.0,88,0.00,BKN,,0.00,0.0,WeatherDisplay:10.37,2013-07-25 07:46:00,
2013-07-25 03:51:00,55.3,52.1,30.04,North,11,0.0,0.0,89,0.00,BKN,,0.00,0.0,WeatherDisplay:10.37,2013-07-25 07:51:00,
2013-07-25 03:56:00,55.4,52.2,30.04,North,11,0.0,0.0,89,0.00,BKN,,0.00,0.0,WeatherDisplay:10.37,2013-07-25 07:56:00,
2013-07-25 04:01:00,55.4,52.2,30.04,North,11,0.0,0.0,89,0.00,BKN,,0.00,0.0,WeatherDisplay:10.37,2013-07-25 08:01:00,
2013-07-25 04:06:00,55.4,52.2,30.04,North,11,0.0,0.0,89,0.00,BKN,,0.00,0.0,WeatherDisplay:10.37,2013-07-25 08:06:00,
2013-07-25 04:11:00,55.4,52.2,30.04,North,11,0.0,0.0,89,0.00,BKN,,0.00,0.0,WeatherDisplay:10.37,2013-07-25 08:11:00,
2013-07-25 04:16:00,55.4,52.2,30.04,North,11,0.0,0.0,89,0.00,BKN,,0.00,0.0,WeatherDisplay:10.37,2013-07-25 08:16:00,
2013-07-25 04:21:00,55.4,52.2,30.04,North,11,0.0,0.0,89,0.00,BKN,,0.00,0.0,WeatherDisplay:10.37,2013-07-25 08:21:00,
2013-07-25 04:26:00,55.4,52.2,30.04,North,11,0.0,0.0,89,0.00,BKN,,0.00,0.0,WeatherDisplay:10.37,2013-07-25 08:26:00,
2013-07-25 04:31:00,55.5,52.3,30.04,North,11,0.0,0.0,89,0.00,BKN,,0.00,0.0,WeatherDisplay:10.37,2013-07-25 08:31:00,
2013-07-25 04:36:00,55.5,52.3,30.04,North,11,0.0,0.0,89,0.00,BKN,,0.00,0.0,WeatherDisplay:10.37,2013-07-25 08:36:00,
2013-07-25 04:41:00,55.5,52.3,30.04,North,11,0.0,0.0,89,0.00,BKN,,0.00,0.0,WeatherDisplay:10.37,2013-07-25 08:41:00,
2013-07-25 04:46:00,55.5,52.3,30.05,North,11,0.0,0.0,89,0.00,BKN,,0.00,0.0,WeatherDisplay:10.37,2013-07-25 08:46:00,
2013-07-25 04:51:00,55.4,52.2,30.05,North,11,0.0,0.0,89,0.00,BKN,,0.00,0.0,WeatherDisplay:10.37,2013-07-25 08:51:00,
2013-07-25 04:56:00,55.4,52.2,30.05,North,11,0.0,0.0,89,0.00,BKN,,0.00,0.0,WeatherDisplay:10.37,2013-07-25 08:56:00,
2013-07-25 05:01:00,55.4,52.2,30.05,North,11,0.0,0.0,89,0.00,BKN,,0.00,0.0,WeatherDisplay:10.37,2013-07-25 09:01:00,
2013-07-25 05:06:00,55.4,52.2,30.05,North,11,0.0,0.0,89,0.00,BKN,,0.00,0.0,WeatherDisplay:10.37,2013-07-25 09:06:00,
2013-07-25 05:11:00,55.5,52.3,30.05,North,11,0.0,0.0,89,0.00,BKN,,0.00,0.0,WeatherDisplay:10.37,2013-07-25 09:11:00,
2013-07-25 05:16:00,55.5,52.3,30.05,North,11,0.0,0.0,89,0.00,BKN,,0.00,0.0,WeatherDisplay:10.37,2013-07-25 09:16:00,
2013-07-25 05:21:00,55.5,52.3,30.05,North,11,0.0,0.0,89,0.00,BKN,,0.00,0.0,WeatherDisplay:10.37,2013-07-25 09:21:00,
2013-07-25 05:26:00,55.4,52.2,30.05,North,11,0.0,0.0,89,0.00,BKN,,0.00,0.0,WeatherDisplay:10.37,2013-07-25 09:26:00,
2013-07-25 05:31:00,55.3,52.4,30.06,North,11,0.0,0.0,90,0.00,BKN,,0.00,0.0,WeatherDisplay:10.37,2013-07-25 09:31:00,
2013-07-25 05:36:00,55.3,52.4,30.06,North,11,0.0,0.0,90,0.00,BKN,,0.00,0.0,WeatherDisplay:10.37,2013-07-25 09:36:00,
2013-07-25 05:41:00,55.3,52.4,30.06,North,11,0.0,0.0,90,0.00,BKN,,0.00,0.0,WeatherDisplay:10.37,2013-07-25 09:41:00,
2013-07-25 05:46:00,55.4,52.5,30.06,North,11,0.0,0.0,90,0.00,BKN,,0.00,0.0,WeatherDisplay:10.37,2013-07-25 09:46:00,
2013-07-25 05:51:00,55.5,52.6,30.06,North,11,0.0,0.0,90,0.00,BKN,,0.00,0.0,WeatherDisplay:10.37,2013-07-25 09:51:00,
2013-07-25 05:56:00,55.7,52.8,30.06,North,11,0.0,0.0,90,0.00,BKN,,0.00,0.0,WeatherDisplay:10.37,2013-07-25 09:56:00,
2013-07-25 06:01:00,55.7,52.8,30.06,North,11,0.0,0.0,90,0.00,BKN,,0.00,0.0,WeatherDisplay:10.37,2013-07-25 10:01:00,
2013-07-25 06:06:00,55.7,52.8,30.06,North,11,0.0,0.0,90,0.00,BKN,,0.00,0.0,WeatherDisplay:10.37,2013-07-25 10:06:00,
2013-07-25 06:11:00,55.6,52.7,30.06,North,11,0.0,0.0,90,0.00,BKN,,0.00,0.0,WeatherDisplay:10.37,2013-07-25 10:11:00,
2013-07-25 06:16:00,55.5,52.6,30.06,North,11,0.0,0.0,90,0.00,BKN,,0.00,0.0,WeatherDisplay:10.37,2013-07-25 10:16:00,
2013-07-25 06:21:00,55.5,52.6,30.06,North,11,0.0,0.0,90,0.00,FEW,,0.00,0.0,WeatherDisplay:10.37,2013-07-25 10:21:00,
2013-07-25 06:26:00,55.4,52.5,30.06,North,11,0.0,0.0,90,0.00,FEW,,0.00,0.0,WeatherDisplay:10.37,2013-07-25 10:26:00,
2013-07-25 06:31:00,55.4,52.5,30.07,North,11,0.0,0.0,90,0.00,FEW,,0.00,0.0,WeatherDisplay:10.37,2013-07-25 10:31:00,
2013-07-25 06:36:00,55.4,52.5,30.07,North,11,0.0,2.0,90,0.00,FEW,,0.00,0.0,WeatherDisplay:10.37,2013-07-25 10:36:00,
2013-07-25 06:41:00,55.5,52.6,30.07,North,11,0.0,2.0,90,0.00,FEW,,0.00,0.0,WeatherDisplay:10.37,2013-07-25 10:41:00,
2013-07-25 06:46:00,55.7,53.1,30.07,North,11,0.0,1.0,91,0.00,FEW,,0.00,0.0,WeatherDisplay:10.37,2013-07-25 10:46:00,
2013-07-25 06:51:00,55.9,53.0,30.07,North,11,0.0,0.0,90,0.00,FEW,,0.00,0.0,WeatherDisplay:10.37,2013-07-25 10:51:00,
2013-07-25 06:56:00,56.1,53.2,30.07,North,11,0.0,1.0,90,0.00,FEW,,0.00,0.0,WeatherDisplay:10.37,2013-07-25 10:56:00,
2013-07-25 07:01:00,56.3,53.4,30.07,North,11,0.0,1.0,90,0.00,FEW,,0.00,0.0,WeatherDisplay:10.37,2013-07-25 11:01:00,
2013-07-25 07:06:00,56.6,53.7,30.07,North,11,0.0,3.0,90,0.00,FEW,,0.00,0.0,WeatherDisplay:10.37,2013-07-25 11:06:00,
2013-07-25 07:11:00,57.1,54.2,30.07,North,11,0.0,2.0,90,0.00,FEW,,0.00,0.0,WeatherDisplay:10.37,2013-07-25 11:11:00,
2013-07-25 07:16:00,57.5,54.3,30.08,North,11,1.0,2.0,89,0.00,FEW,,0.00,0.0,WeatherDisplay:10.37,2013-07-25 11:16:00,
2013-07-25 07:21:00,57.8,54.6,30.08,North,10,1.0,3.0,89,0.00,FEW,,0.00,0.0,WeatherDisplay:10.37,2013-07-25 11:21:00,
2013-07-25 07:31:00,58.7,54.8,30.08,WNW,282,1.0,4.0,87,0.00,FEW,,0.00,0.0,WeatherDisplay:10.37,2013-07-25 11:31:00,
2013-07-25 07:36:00,59.1,55.2,30.08,West,259,1.0,4.0,87,0.00,FEW,,0.00,0.0,WeatherDisplay:10.37,2013-07-25 11:36:00,
2013-07-25 07:41:00,59.4,55.2,30.08,West,265,1.0,5.0,86,0.00,FEW,,0.00,0.0,WeatherDisplay:10.37,2013-07-25 11:41:00,
2013-07-25 07:51:00,60.1,55.6,30.09,WNW,282,3.0,5.0,85,0.00,FEW,,0.00,0.0,WeatherDisplay:10.37,2013-07-25 11:51:00,
2013-07-25 07:56:00,60.5,55.6,30.09,West,277,2.0,7.0,84,0.00,FEW,,0.00,0.0,WeatherDisplay:10.37,2013-07-25 11:56:00,
2013-07-25 08:06:00,61.2,56.0,30.09,West,263,0.0,4.0,83,0.00,FEW,,0.00,0.0,WeatherDisplay:10.37,2013-07-25 12:06:00,
2013-07-25 08:11:00,61.5,56.3,30.09,West,274,2.0,6.0,83,0.00,FEW,,0.00,0.0,WeatherDisplay:10.37,2013-07-25 12:11:00,
2013-07-25 08:16:00,61.9,56.3,30.09,West,276,1.0,5.0,82,0.00,FEW,,0.00,5.0,WeatherDisplay:10.37,2013-07-25 12:16:00,
2013-07-25 08:21:00,62.1,56.6,30.09,West,276,2.0,5.0,82,0.00,FEW,,0.00,0.0,WeatherDisplay:10.37,2013-07-25 12:21:00,
2013-07-25 08:31:00,62.7,56.4,30.09,WNW,290,2.0,5.0,80,0.00,FEW,,0.00,0.0,WeatherDisplay:10.37,2013-07-25 12:31:00,
2013-07-25 08:36:00,63.0,56.7,30.09,WNW,301,2.0,4.0,80,0.00,FEW,,0.00,0.0,WeatherDisplay:10.37,2013-07-25 12:36:00,
2013-07-25 08:41:00,63.2,56.2,30.09,WNW,303,1.0,6.0,78,0.00,FEW,,0.00,0.0,WeatherDisplay:10.37,2013-07-25 12:41:00,
2013-07-25 08:46:00,63.5,56.5,30.09,WNW,303,1.0,5.0,78,0.00,FEW,,0.00,0.0,WeatherDisplay:10.37,2013-07-25 12:46:00,
2013-07-25 08:51:00,63.6,56.3,30.09,NW,315,5.0,7.0,77,0.00,FEW,,0.00,0.0,WeatherDisplay:10.37,2013-07-25 12:51:00,
2013-07-25 08:56:00,63.8,56.1,30.09,NNW,327,1.0,4.0,76,0.00,FEW,,0.00,0.0,WeatherDisplay:10.37,2013-07-25 12:56:00,
2013-07-25 09:01:00,64.0,56.3,30.10,NW,319,2.0,6.0,76,0.00,FEW,,0.00,0.0,WeatherDisplay:10.37,2013-07-25 13:01:00,
2013-07-25 09:06:00,64.1,56.0,30.10,NW,315,1.0,5.0,75,0.00,FEW,,0.00,0.0,WeatherDisplay:10.37,2013-07-25 13:06:00,
2013-07-25 09:11:00,64.3,56.2,30.10,NW,324,3.0,5.0,75,0.00,FEW,,0.00,0.0,WeatherDisplay:10.37,2013-07-25 13:11:00,
2013-07-25 09:16:00,64.4,55.9,30.10,NNW,330,3.0,7.0,74,0.00,FEW,,0.00,0.0,WeatherDisplay:10.37,2013-07-25 13:16:00,
2013-07-25 09:21:00,64.6,56.1,30.10,NNW,330,5.0,7.0,74,0.00,FEW,,0.00,0.0,WeatherDisplay:10.37,2013-07-25 13:21:00,
2013-07-25 09:26:00,64.7,56.2,30.10,NNW,329,2.0,6.0,74,0.00,FEW,,0.00,0.0,WeatherDisplay:10.37,2013-07-25 13:26:00,
2013-07-25 09:31:00,64.8,55.9,30.10,NNW,327,2.0,5.0,73,0.00,FEW,,0.00,0.0,WeatherDisplay:10.37,2013-07-25 13:31:00,
2013-07-25 09:41:00,65.1,56.2,30.10,NW,320,2.0,7.0,73,0.00,FEW,,0.00,0.0,WeatherDisplay:10.37,2013-07-25 13:41:00,
2013-07-25 09:46:00,65.1,55.9,30.10,NW,325,1.0,6.0,72,0.00,FEW,,0.00,0.0,WeatherDisplay:10.37,2013-07-25 13:46:00,
2013-07-25 09:51:00,65.1,55.8,30.10,NW,323,0.0,3.0,72,0.00,FEW,,0.00,0.0,WeatherDisplay:10.37,2013-07-25 13:51:00,
2013-07-25 09:56:00,65.2,56.3,30.10,NW,320,0.0,6.0,73,0.00,FEW,,0.00,0.0,WeatherDisplay:10.37,2013-07-25 13:56:00,
2013-07-25 10:01:00,65.4,56.5,30.10,NW,319,1.0,4.0,73,0.00,FEW,,0.00,0.0,WeatherDisplay:10.37,2013-07-25 14:01:00,
2013-07-25 10:06:00,65.5,56.3,30.10,North,357,2.0,7.0,72,0.00,FEW,,0.00,0.0,WeatherDisplay:10.37,2013-07-25 14:06:00,
2013-07-25 10:11:00,65.6,56.4,30.10,North,3,1.0,4.0,72,0.00,FEW,,0.00,0.0,WeatherDisplay:10.37,2013-07-25 14:11:00,
2013-07-25 10:21:00,65.9,56.6,30.11,NNW,339,3.0,6.0,72,0.00,FEW,,0.00,0.0,WeatherDisplay:10.37,2013-07-25 14:21:00,
2013-07-25 10:31:00,66.2,56.5,30.11,NW,320,3.0,7.0,71,0.00,FEW,,0.00,0.0,WeatherDisplay:10.37,2013-07-25 14:31:00,
2013-07-25 10:36:00,66.4,56.7,30.11,NW,322,0.0,6.0,71,0.00,FEW,,0.00,0.0,WeatherDisplay:10.37,2013-07-25 14:36:00,
2013-07-25 10:41:00,66.4,56.7,30.11,NNW,338,6.0,7.0,71,0.00,FEW,,0.00,327.0,WeatherDisplay:10.37,2013-07-25 14:41:00,
2013-07-25 10:46:00,66.4,56.7,30.11,NNW,339,2.0,5.0,71,0.00,FEW,,0.00,0.0,WeatherDisplay:10.37,2013-07-25 14:46:00,
2013-07-25 10:51:00,66.6,57.3,30.11,NNW,332,0.0,5.0,72,0.00,FEW,,0.00,343.0,WeatherDisplay:10.37,2013-07-25 14:51:00,
2013-07-25 10:56:00,66.9,57.2,30.11,NW,326,3.0,6.0,71,0.00,FEW,,0.00,0.0,WeatherDisplay:10.37,2013-07-25 14:56:00,
2013-07-25 11:01:00,67.0,56.8,30.12,NNW,336,3.0,8.0,70,0.00,FEW,,0.00,0.0,WeatherDisplay:10.37,2013-07-25 15:01:00,
2013-07-25 11:06:00,66.9,56.8,30.12,NNW,345,0.0,6.0,70,0.00,FEW,,0.00,0.0,WeatherDisplay:10.37,2013-07-25 15:06:00,
2013-07-25 11:11:00,67.2,57.9,30.12,NNW,348,1.0,5.0,72,0.00,FEW,,0.00,0.0,WeatherDisplay:10.37,2013-07-25 15:11:00,
2013-07-25 11:16:00,67.6,57.5,30.12,North,350,2.0,6.0,70,0.00,FEW,,0.00,0.0,WeatherDisplay:10.37,2013-07-25 15:16:00,
2013-07-25 11:21:00,67.4,56.9,30.12,North,357,0.0,8.0,69,0.00,SCT,,0.00,0.0,WeatherDisplay:10.37,2013-07-25 15:21:00,
2013-07-25 11:26:00,67.5,57.3,30.12,North,354,1.0,6.0,70,0.00,SCT,,0.00,0.0,WeatherDisplay:10.37,2013-07-25 15:26:00,
2013-07-25 11:31:00,67.7,57.2,30.12,North,349,1.0,6.0,69,0.00,SCT,,0.00,0.0,WeatherDisplay:10.37,2013-07-25 15:31:00,
2013-07-25 11:36:00,67.9,58.1,30.12,North,352,2.0,7.0,71,0.00,SCT,,0.00,0.0,WeatherDisplay:10.37,2013-07-25 15:36:00,
2013-07-25 11:41:00,67.9,57.8,30.12,North,5,1.0,6.0,70,0.00,SCT,,0.00,0.0,WeatherDisplay:10.37,2013-07-25 15:41:00,
2013-07-25 11:46:00,67.7,57.2,30.12,NNE,17,3.0,7.0,69,0.00,SCT,,0.00,0.0,WeatherDisplay:10.37,2013-07-25 15:46:00,
2013-07-25 11:51:00,67.9,58.1,30.12,North,6,3.0,6.0,71,0.00,SCT,,0.00,0.0,WeatherDisplay:10.37,2013-07-25 15:51:00,
2013-07-25 11:56:00,68.1,57.6,30.12,NNW,344,2.0,8.0,69,0.00,SCT,,0.00,0.0,WeatherDisplay:10.37,2013-07-25 15:56:00,
2013-07-25 12:01:00,68.1,56.7,30.12,North,357,2.0,8.0,67,0.00,SCT,,0.00,0.0,WeatherDisplay:10.37,2013-07-25 16:01:00,
2013-07-25 12:06:00,67.9,57.4,30.12,North,4,3.0,9.0,69,0.00,SCT,,0.00,0.0,WeatherDisplay:10.37,2013-07-25 16:06:00,
2013-07-25 12:11:00,67.9,56.1,30.12,North,355,2.0,8.0,66,0.00,SCT,,0.00,0.0,WeatherDisplay:10.37,2013-07-25 16:11:00,
2013-07-25 12:21:00,68.6,57.7,30.12,NNW,338,2.0,10.0,68,0.00,BKN,,0.00,0.0,WeatherDisplay:10.37,2013-07-25 16:21:00,
2013-07-25 12:26:00,68.7,57.3,30.12,NNW,348,2.0,8.0,67,0.00,BKN,,0.00,0.0,WeatherDisplay:10.37,2013-07-25 16:26:00,
2013-07-25 12:31:00,69.0,56.8,30.12,NNW,339,5.0,8.0,65,0.00,BKN,,0.00,0.0,WeatherDisplay:10.37,2013-07-25 16:31:00,
2013-07-25 12:36:00,69.2,57.4,30.12,NW,323,3.0,7.0,66,0.00,BKN,,0.00,0.0,WeatherDisplay:10.37,2013-07-25 16:36:00,
2013-07-25 12:41:00,69.1,57.7,30.12,NNW,343,2.0,8.0,67,0.00,BKN,,0.00,0.0,WeatherDisplay:10.37,2013-07-25 16:41:00,
2013-07-25 12:46:00,69.0,57.6,30.11,North,359,3.0,8.0,67,0.00,BKN,,0.00,0.0,WeatherDisplay:10.37,2013-07-25 16:46:00,
2013-07-25 12:51:00,69.2,58.6,30.11,NNW,346,3.0,7.0,69,0.00,BKN,,0.00,0.0,WeatherDisplay:10.37,2013-07-25 16:51:00,
2013-07-25 12:56:00,69.6,57.3,30.11,NNW,345,3.0,7.0,65,0.00,BKN,,0.00,0.0,WeatherDisplay:10.37,2013-07-25 16:56:00,
2013-07-25 13:01:00,69.5,58.0,30.11,North,11,1.0,12.0,67,0.00,BKN,,0.00,0.0,WeatherDisplay:10.37,2013-07-25 17:01:00,
2013-07-25 13:06:00,69.7,57.8,30.11,North,2,5.0,9.0,66,0.00,BKN,,0.00,0.0,WeatherDisplay:10.37,2013-07-25 17:06:00,
2013-07-25 13:11:00,69.6,57.8,30.11,North,354,5.0,12.0,66,0.00,BKN,,0.00,0.0,WeatherDisplay:10.37,2013-07-25 17:11:00,
2013-07-25 13:16:00,69.7,58.3,30.11,North,3,5.0,10.0,67,0.00,BKN,,0.00,0.0,WeatherDisplay:10.37,2013-07-25 17:16:00,
2013-07-25 13:21:00,69.7,57.8,30.11,North,10,6.0,9.0,66,0.00,BKN,,0.00,0.0,WeatherDisplay:10.37,2013-07-25 17:21:00,
2013-07-25 13:26:00,69.4,58.0,30.11,North,11,2.0,9.0,67,0.00,BKN,,0.00,0.0,WeatherDisplay:10.37,2013-07-25 17:26:00,
2013-07-25 13:31:00,69.6,57.3,30.10,North,7,5.0,10.0,65,0.00,BKN,,0.00,0.0,WeatherDisplay:10.37,2013-07-25 17:31:00,
2013-07-25 13:36:00,69.6,58.6,30.10,North,0,3.0,9.0,68,0.00,BKN,,0.00,65.0,WeatherDisplay:10.37,2013-07-25 17:36:00,
2013-07-25 13:46:00,69.1,56.9,30.10,North,11,6.0,9.0,65,0.00,BKN,,0.00,0.0,WeatherDisplay:10.37,2013-07-25 17:46:00,
2013-07-25 13:51:00,69.2,57.8,30.10,NNE,15,3.0,9.0,67,0.00,BKN,,0.00,0.0,WeatherDisplay:10.37,2013-07-25 17:51:00,
2013-07-25 13:56:00,69.3,57.5,30.10,NNE,13,3.0,7.0,66,0.00,BKN,,0.00,9.0,WeatherDisplay:10.37,2013-07-25 17:56:00,
2013-07-25 14:01:00,69.5,57.2,30.10,NNE,12,7.0,12.0,65,0.00,BKN,,0.00,0.0,WeatherDisplay:10.37,2013-07-25 18:01:00,
2013-07-25 14:06:00,69.4,58.0,30.10,NNE,13,5.0,10.0,67,0.00,BKN,,0.00,0.0,WeatherDisplay:10.37,2013-07-25 18:06:00,
2013-07-25 14:11:00,69.6,57.3,30.10,North,1,6.0,9.0,65,0.00,BKN,,0.00,751.0,WeatherDisplay:10.37,2013-07-25 18:11:00,
2013-07-25 14:16:00,69.7,57.0,30.10,North,2,1.0,7.0,64,0.00,BKN,,0.00,749.0,WeatherDisplay:10.37,2013-07-25 18:16:00,
2013-07-25 14:21:00,69.9,57.6,30.10,NNE,12,5.0,8.0,65,0.00,FEW,,0.00,745.0,WeatherDisplay:10.37,2013-07-25 18:21:00,
2013-07-25 14:26:00,70.3,58.0,30.10,North,10,6.0,10.0,65,0.00,FEW,,0.00,740.0,WeatherDisplay:10.37,2013-07-25 18:26:00,
2013-07-25 14:31:00,70.1,56.9,30.10,North,11,2.0,9.0,63,0.00,FEW,,0.00,740.0,WeatherDisplay:10.37,2013-07-25 18:31:00,
2013-07-25 14:36:00,70.4,57.2,30.10,North,11,3.0,7.0,63,0.00,FEW,,0.00,733.0,WeatherDisplay:10.37,2013-07-25 18:36:00,
2013-07-25 14:41:00,70.4,56.8,30.10,NNE,14,5.0,12.0,62,0.00,FEW,,0.00,731.0,WeatherDisplay:10.37,2013-07-25 18:41:00,
2013-07-25 14:46:00,70.3,56.7,30.10,NNE,12,6.0,12.0,62,0.00,FEW,,0.00,728.0,WeatherDisplay:10.37,2013-07-25 18:46:00,
2013-07-25 14:51:00,70.4,55.8,30.10,North,10,2.0,6.0,60,0.00,FEW,,0.00,721.0,WeatherDisplay:10.37,2013-07-25 18:51:00,
2013-07-25 14:56:00,70.7,56.6,30.10,NNE,13,2.0,6.0,61,0.00,FEW,,0.00,717.0,WeatherDisplay:10.37,2013-07-25 18:56:00,
2013-07-25 15:01:00,70.9,55.8,30.10,NNE,23,2.0,7.0,59,0.00,FEW,,0.00,712.0,WeatherDisplay:10.37,2013-07-25 19:01:00,
2013-07-25 15:06:00,71.3,56.2,30.10,NNE,28,2.0,5.0,59,0.00,FEW,,0.00,705.0,WeatherDisplay:10.37,2013-07-25 19:06:00,
2013-07-25 15:11:00,71.3,56.2,30.10,NNE,19,2.0,12.0,59,0.00,FEW,,0.00,700.0,WeatherDisplay:10.37,2013-07-25 19:11:00,
2013-07-25 15:16:00,71.3,54.8,30.10,NNE,12,6.0,10.0,56,0.00,FEW,,0.00,694.0,WeatherDisplay:10.37,2013-07-25 19:16:00,
2013-07-25 15:21:00,71.1,55.1,30.10,NNE,14,2.0,7.0,57,0.00,FEW,,0.00,687.0,WeatherDisplay:10.37,2013-07-25 19:21:00,
2013-07-25 15:26:00,71.2,55.2,30.10,NNE,19,0.0,7.0,57,0.00,FEW,,0.00,679.0,WeatherDisplay:10.37,2013-07-25 19:26:00,
2013-07-25 15:31:00,71.8,55.2,30.10,NNE,18,3.0,9.0,56,0.00,FEW,,0.00,673.0,WeatherDisplay:10.37,2013-07-25 19:31:00,
2013-07-25 15:36:00,71.8,54.3,30.10,NNE,15,2.0,7.0,54,0.00,FEW,,0.00,664.0,WeatherDisplay:10.37,2013-07-25 19:36:00,
2013-07-25 15:41:00,71.6,54.0,30.10,NNE,18,2.0,5.0,54,0.00,FEW,,0.00,657.0,WeatherDisplay:10.37,2013-07-25 19:41:00,
2013-07-25 15:46:00,71.3,54.3,30.10,NNE,14,6.0,10.0,55,0.00,FEW,,0.00,647.0,WeatherDisplay:10.37,2013-07-25 19:46:00,
2013-07-25 15:51:00,71.5,56.4,30.10,North,2,2.0,6.0,59,0.00,FEW,,0.00,640.0,WeatherDisplay:10.37,2013-07-25 19:51:00,
2013-07-25 15:56:00,71.9,55.9,30.10,North,357,0.0,5.0,57,0.00,FEW,,0.00,628.0,WeatherDisplay:10.37,2013-07-25 19:56:00,
2013-07-25 16:01:00,72.4,55.4,30.10,North,7,8.0,12.0,55,0.00,FEW,,0.00,617.0,WeatherDisplay:10.37,2013-07-25 20:01:00,
2013-07-25 16:11:00,71.7,55.2,30.10,NNE,20,1.0,5.0,56,0.00,FEW,,0.00,598.0,WeatherDisplay:10.37,2013-07-25 20:11:00,
2013-07-25 16:16:00,71.8,54.8,30.10,NNE,19,2.0,6.0,55,0.00,FEW,,0.00,591.0,WeatherDisplay:10.37,2013-07-25 20:16:00,
2013-07-25 16:21:00,72.0,54.4,30.10,NNE,16,1.0,5.0,54,0.00,FEW,,0.00,582.0,WeatherDisplay:10.37,2013-07-25 20:21:00,
2013-07-25 16:26:00,72.3,53.7,30.10,NNE,15,3.0,8.0,52,0.00,FEW,,0.00,577.0,WeatherDisplay:10.37,2013-07-25 20:26:00,
2013-07-25 16:31:00,72.3,54.2,30.10,NNE,19,2.0,8.0,53,0.00,FEW,,0.00,578.0,WeatherDisplay:10.37,2013-07-25 20:31:00,
2013-07-25 16:41:00,72.0,54.4,30.10,NNE,17,0.0,5.0,54,0.00,FEW,,0.00,526.0,WeatherDisplay:10.37,2013-07-25 20:41:00,
2013-07-25 16:46:00,72.1,54.0,30.10,NNE,24,2.0,8.0,53,0.00,FEW,,0.00,512.0,WeatherDisplay:10.37,2013-07-25 20:46:00,
2013-07-25 16:51:00,72.0,53.4,30.10,NNE,17,6.0,10.0,52,0.00,FEW,,0.00,496.0,WeatherDisplay:10.37,2013-07-25 20:51:00,
2013-07-25 17:01:00,72.1,53.5,30.10,NNE,18,3.0,8.0,52,0.00,FEW,,0.00,473.0,WeatherDisplay:10.37,2013-07-25 21:01:00,
2013-07-25 17:06:00,72.3,53.2,30.10,NNE,14,3.0,7.0,51,0.00,FEW,,0.00,457.0,WeatherDisplay:10.37,2013-07-25 21:06:00,
2013-07-25 17:11:00,72.3,53.7,30.10,North,11,2.0,8.0,52,0.00,FEW,,0.00,445.0,WeatherDisplay:10.37,2013-07-25 21:11:00,
2013-07-25 17:16:00,72.5,53.9,30.10,North,10,5.0,9.0,52,0.00,FEW,,0.00,432.0,WeatherDisplay:10.37,2013-07-25 21:16:00,
2013-07-25 17:21:00,72.3,52.6,30.10,NNE,15,5.0,9.0,50,0.00,FEW,,0.00,418.0,WeatherDisplay:10.37,2013-07-25 21:21:00,
2013-07-25 17:26:00,72.5,53.3,30.10,NNE,18,0.0,8.0,51,0.00,FEW,,0.00,404.0,WeatherDisplay:10.37,2013-07-25 21:26:00,
2013-07-25 17:31:00,72.7,53.0,30.10,NNE,19,2.0,6.0,50,0.00,FEW,,0.00,394.0,WeatherDisplay:10.37,2013-07-25 21:31:00,
2013-07-25 17:36:00,72.8,53.1,30.10,NNE,16,0.0,6.0,50,0.00,FEW,,0.00,381.0,WeatherDisplay:10.37,2013-07-25 21:36:00,
2013-07-25 17:41:00,72.8,53.6,30.10,NNE,15,0.0,6.0,51,0.00,FEW,,0.00,367.0,WeatherDisplay:10.37,2013-07-25 21:41:00,
2013-07-25 17:46:00,72.9,53.2,30.10,NNE,15,1.0,3.0,50,0.00,FEW,,0.00,355.0,WeatherDisplay:10.37,2013-07-25 21:46:00,
2013-07-25 17:51:00,73.2,52.9,30.10,NNE,16,1.0,7.0,49,0.00,FEW,,0.00,343.0,WeatherDisplay:10.37,2013-07-25 21:51:00,
2013-07-25 17:56:00,72.8,52.5,30.10,NNE,19,0.0,7.0,49,0.00,FEW,,0.00,330.0,WeatherDisplay:10.37,2013-07-25 21:56:00,
2013-07-25 18:01:00,72.7,52.4,30.10,NNE,20,0.0,3.0,49,0.00,FEW,,0.00,320.0,WeatherDisplay:10.37,2013-07-25 22:01:00,
2013-07-25 18:06:00,72.7,53.5,30.10,NNE,20,1.0,6.0,51,0.00,FEW,,0.00,311.0,WeatherDisplay:10.37,2013-07-25 22:06:00,
2013-07-25 18:11:00,72.7,52.4,30.10,NNE,17,1.0,3.0,49,0.00,FEW,,0.00,322.0,WeatherDisplay:10.37,2013-07-25 22:11:00,
2013-07-25 18:16:00,72.3,51.5,30.10,NNE,14,1.0,6.0,48,0.00,FEW,,0.00,267.0,WeatherDisplay:10.37,2013-07-25 22:16:00,
2013-07-25 18:21:00,72.0,51.8,30.10,NNE,16,1.0,5.0,49,0.00,FEW,,0.00,243.0,WeatherDisplay:10.37,2013-07-25 22:21:00,
2013-07-25 18:26:00,72.0,51.8,30.10,NNE,22,1.0,5.0,49,0.00,FEW,,0.00,225.0,WeatherDisplay:10.37,2013-07-25 22:26:00,
2013-07-25 18:31:00,72.0,51.8,30.09,NNE,26,0.0,5.0,49,0.00,FEW,,0.00,209.0,WeatherDisplay:10.37,2013-07-25 22:31:00,
2013-07-25 18:41:00,72.1,52.9,30.09,NNE,26,0.0,3.0,51,0.00,FEW,,0.00,171.0,WeatherDisplay:10.37,2013-07-25 22:41:00,
2013-07-25 18:46:00,72.0,51.2,30.09,NNE,26,0.0,3.0,48,0.00,FEW,,0.00,155.0,WeatherDisplay:10.37,2013-07-25 22:46:00,
2013-07-25 18:51:00,72.0,51.2,30.09,NNE,26,0.0,3.0,48,0.00,FEW,,0.00,139.0,WeatherDisplay:10.37,2013-07-25 22:51:00,
2013-07-25 18:56:00,72.0,51.2,30.09,NNE,26,0.0,1.0,48,0.00,FEW,,0.00,121.0,WeatherDisplay:10.37,2013-07-25 22:56:00,
2013-07-25 19:01:00,72.0,51.8,30.09,NNE,26,0.0,1.0,49,0.00,FEW,,0.00,109.0,WeatherDisplay:10.37,2013-07-25 23:01:00,
2013-07-25 19:06:00,72.0,52.3,30.09,NNE,26,0.0,3.0,50,0.00,FEW,,0.00,93.0,WeatherDisplay:10.37,2013-07-25 23:06:00,
2013-07-25 19:11:00,71.8,52.1,30.09,NNE,26,0.0,4.0,50,0.00,FEW,,0.00,76.0,WeatherDisplay:10.37,2013-07-25 23:11:00,
2013-07-25 19:16:00,71.4,52.4,30.10,NNE,27,1.0,3.0,51,0.00,FEW,,0.00,56.0,WeatherDisplay:10.37,2013-07-25 23:16:00,
2013-07-25 19:21:00,71.0,51.9,30.10,NNE,30,1.0,4.0,51,0.00,FEW,,0.00,40.0,WeatherDisplay:10.37,2013-07-25 23:21:00,
2013-07-25 19:26:00,70.6,52.1,30.10,NNE,31,0.0,2.0,52,0.00,FEW,,0.00,19.0,WeatherDisplay:10.37,2013-07-25 23:26:00,
2013-07-25 19:31:00,70.4,52.4,30.09,NNE,31,0.0,2.0,53,0.00,FEW,,0.00,0.0,WeatherDisplay:10.37,2013-07-25 23:31:00,
2013-07-25 19:36:00,70.3,51.8,30.09,NNE,15,0.0,3.0,52,0.00,FEW,,0.00,0.0,WeatherDisplay:10.37,2013-07-25 23:36:00,
2013-07-25 19:41:00,70.1,51.1,30.09,NNE,12,0.0,1.0,51,0.00,FEW,,0.00,0.0,WeatherDisplay:10.37,2013-07-25 23:41:00,
2013-07-25 19:46:00,70.1,52.2,30.09,NNE,13,0.0,1.0,53,0.00,FEW,,0.00,0.0,WeatherDisplay:10.37,2013-07-25 23:46:00,
2013-07-25 19:51:00,69.9,52.0,30.09,NNE,13,0.0,1.0,53,0.00,FEW,,0.00,0.0,WeatherDisplay:10.37,2013-07-25 23:51:00,
2013-07-25 19:56:00,69.7,51.8,30.09,NNE,13,0.0,1.0,53,0.00,FEW,,0.00,0.0,WeatherDisplay:10.37,2013-07-25 23:56:00,
2013-07-25 20:01:00,69.4,51.5,30.09,NNE,13,0.0,1.0,53,0.00,FEW,,0.00,0.0,WeatherDisplay:10.37,2013-07-26 00:01:00,
2013-07-25 20:06:00,69.1,52.3,30.09,NNE,13,0.0,1.0,55,0.00,FEW,,0.00,0.0,WeatherDisplay:10.37,2013-07-26 00:06:00,
2013-07-25 20:11:00,68.9,52.6,30.09,NNE,13,0.0,1.0,56,0.00,FEW,,0.00,0.0,WeatherDisplay:10.37,2013-07-26 00:11:00,
2013-07-25 20:16:00,68.7,52.8,30.09,NNE,13,0.0,1.0,57,0.00,FEW,,0.00,0.0,WeatherDisplay:10.37,2013-07-26 00:16:00,
2013-07-25 20:21:00,68.4,53.0,30.09,NNE,24,0.0,1.0,58,0.00,FEW,,0.00,0.0,WeatherDisplay:10.37,2013-07-26 00:21:00,
2013-07-25 20:26:00,68.2,53.3,30.09,NE,42,0.0,0.0,59,0.00,FEW,,0.00,0.0,WeatherDisplay:10.37,2013-07-26 00:26:00,
2013-07-25 20:31:00,67.9,53.0,30.09,NE,42,0.0,0.0,59,0.00,FEW,,0.00,0.0,WeatherDisplay:10.37,2013-07-26 00:31:00,
2013-07-25 20:36:00,67.7,52.9,30.09,NE,42,0.0,0.0,59,0.00,FEW,,0.00,0.0,WeatherDisplay:10.37,2013-07-26 00:36:00,
2013-07-25 20:41:00,67.4,52.6,30.09,NE,42,0.0,0.0,59,0.00,FEW,,0.00,0.0,WeatherDisplay:10.37,2013-07-26 00:41:00,
2013-07-25 20:46:00,67.2,52.3,30.08,NE,42,0.0,0.0,59,0.00,FEW,,0.00,0.0,WeatherDisplay:10.37,2013-07-26 00:46:00,
2013-07-25 20:51:00,66.9,52.6,30.08,NE,42,0.0,0.0,60,0.00,FEW,,0.00,0.0,WeatherDisplay:10.37,2013-07-26 00:51:00,
2013-07-25 20:56:00,66.5,52.6,30.08,NE,42,0.0,0.0,61,0.00,FEW,,0.00,0.0,WeatherDisplay:10.37,2013-07-26 00:56:00,
2013-07-25 21:01:00,66.2,52.8,30.08,NE,42,0.0,0.0,62,0.00,FEW,,0.00,0.0,WeatherDisplay:10.37,2013-07-26 01:01:00,
2013-07-25 21:06:00,65.9,52.9,30.08,NE,42,0.0,0.0,63,0.00,FEW,,0.00,0.0,WeatherDisplay:10.37,2013-07-26 01:06:00,
2013-07-25 21:11:00,65.6,53.1,30.08,NE,42,0.0,0.0,64,0.00,FEW,,0.00,0.0,WeatherDisplay:10.37,2013-07-26 01:11:00,
2013-07-25 21:16:00,65.2,53.6,30.09,NE,42,0.0,0.0,66,0.00,FEW,,0.00,0.0,WeatherDisplay:10.37,2013-07-26 01:16:00,
2013-07-25 21:21:00,64.8,53.2,30.09,NE,42,0.0,0.0,66,0.00,FEW,,0.00,0.0,WeatherDisplay:10.37,2013-07-26 01:21:00,
2013-07-25 21:26:00,64.4,53.6,30.09,NE,42,0.0,0.0,68,0.00,FEW,,0.00,0.0,WeatherDisplay:10.37,2013-07-26 01:26:00,
2013-07-25 21:31:00,64.1,53.3,30.10,NE,42,0.0,0.0,68,0.00,FEW,,0.00,0.0,WeatherDisplay:10.37,2013-07-26 01:31:00,
2013-07-25 21:36:00,64.0,53.6,30.10,NE,42,0.0,0.0,69,0.00,FEW,,0.00,0.0,WeatherDisplay:10.37,2013-07-26 01:36:00,
2013-07-25 21:41:00,63.8,54.2,30.10,NE,42,0.0,0.0,71,0.00,FEW,,0.00,0.0,WeatherDisplay:10.37,2013-07-26 01:41:00,
2013-07-25 21:46:00,63.5,54.7,30.10,NE,42,0.0,0.0,73,0.00,FEW,,0.00,0.0,WeatherDisplay:10.37,2013-07-26 01:46:00,
2013-07-25 21:51:00,63.3,54.5,30.10,NE,42,0.0,0.0,73,0.00,FEW,,0.00,0.0,WeatherDisplay:10.37,2013-07-26 01:51:00,
2013-07-25 21:56:00,63.1,54.3,30.10,NE,42,0.0,0.0,73,0.00,FEW,,0.00,0.0,WeatherDisplay:10.37,2013-07-26 01:56:00,
2013-07-25 22:06:00,62.8,54.0,30.10,NE,42,0.0,0.0,73,0.00,FEW,,0.00,0.0,WeatherDisplay:10.37,2013-07-26 02:06:00,
2013-07-25 22:11:00,62.5,54.5,30.10,NE,42,0.0,0.0,75,0.00,FEW,,0.00,0.0,WeatherDisplay:10.37,2013-07-26 02:11:00,
2013-07-25 22:16:00,62.2,54.5,30.11,NE,42,0.0,0.0,76,0.00,FEW,,0.00,0.0,WeatherDisplay:10.37,2013-07-26 02:16:00,
2013-07-25 22:21:00,61.9,54.6,30.11,NE,42,0.0,0.0,77,0.00,FEW,,0.00,0.0,WeatherDisplay:10.37,2013-07-26 02:21:00,
2013-07-25 22:26:00,61.6,54.7,30.11,NE,42,0.0,0.0,78,0.00,FEW,,0.00,0.0,WeatherDisplay:10.37,2013-07-26 02:26:00,
2013-07-25 22:31:00,61.4,54.5,30.11,NE,42,0.0,0.0,78,0.00,FEW,,0.00,0.0,WeatherDisplay:10.37,2013-07-26 02:31:00,
2013-07-25 22:36:00,61.2,54.6,30.11,NE,42,0.0,0.0,79,0.00,FEW,,0.00,0.0,WeatherDisplay:10.37,2013-07-26 02:36:00,
2013-07-25 22:41:00,61.0,54.8,30.11,NE,42,0.0,0.0,80,0.00,FEW,,0.00,0.0,WeatherDisplay:10.37,2013-07-26 02:41:00,
2013-07-25 22:46:00,60.8,54.6,30.12,NE,42,0.0,0.0,80,0.00,FEW,,0.00,0.0,WeatherDisplay:10.37,2013-07-26 02:46:00,
2013-07-25 22:51:00,60.6,54.7,30.12,NE,42,0.0,0.0,81,0.00,FEW,,0.00,0.0,WeatherDisplay:10.37,2013-07-26 02:51:00,
2013-07-25 23:01:00,60.4,54.2,30.11,NE,42,0.0,0.0,80,0.00,FEW,,0.00,0.0,WeatherDisplay:10.37,2013-07-26 03:01:00,
2013-07-25 23:06:00,60.4,54.2,30.11,NE,42,0.0,0.0,80,0.00,FEW,,0.00,0.0,WeatherDisplay:10.37,2013-07-26 03:06:00,
2013-07-25 23:11:00,60.4,53.9,30.11,NE,42,0.0,0.0,79,0.00,FEW,,0.00,0.0,WeatherDisplay:10.37,2013-07-26 03:11:00,
2013-07-25 23:16:00,60.4,53.5,30.11,NE,42,0.0,0.0,78,0.00,FEW,,0.00,0.0,WeatherDisplay:10.37,2013-07-26 03:16:00,
2013-07-25 23:21:00,60.3,53.4,30.11,NE,42,0.0,0.0,78,0.00,FEW,,0.00,0.0,WeatherDisplay:10.37,2013-07-26 03:21:00,
2013-07-25 23:26:00,60.0,53.1,30.11,NE,42,0.0,0.0,78,0.00,FEW,,0.00,0.0,WeatherDisplay:10.37,2013-07-26 03:26:00,
2013-07-25 23:31:00,59.8,52.9,30.12,NE,42,0.0,0.0,78,0.00,FEW,,0.00,0.0,WeatherDisplay:10.37,2013-07-26 03:31:00,
2013-07-25 23:36:00,59.7,52.5,30.12,NE,42,0.0,0.0,77,0.00,FEW,,0.00,0.0,WeatherDisplay:10.37,2013-07-26 03:36:00,
2013-07-25 23:41:00,59.7,52.4,30.12,NE,42,0.0,0.0,77,0.00,FEW,,0.00,0.0,WeatherDisplay:10.37,2013-07-26 03:41:00,
2013-07-25 23:46:00,59.5,52.3,30.12,NE,42,0.0,0.0,77,0.00,FEW,,0.00,0.0,WeatherDisplay:10.37,2013-07-26 03:46:00,
2013-07-25 23:51:00,59.5,52.3,30.12,NE,42,0.0,0.0,77,0.00,FEW,,0.00,0.0,WeatherDisplay:10.37,2013-07-26 03:51:00,
2013-07-25 23:56:00,59.5,52.3,30.12,NE,42,0.0,0.0,77,0.00,FEW,,0.00,0.0,WeatherDisplay:10.37,2013-07-26 03:56:00,